Погода в Вершино-Бидже

Россия / Республика Хакасия     53°58′46″N   90°58′19″E
темп.,
°C
ветер,
м/с
пор.,
м/с
влажн.,
%
обл.,
%
осадки,
мм/ч
давл.,
гПа
погр.,
м
2 июля, сб
сб201:00+15зсз3368100 0.4 100448
04:00+15зсз3766100 0.0 1004191
07:00+15зюз2363100 0.0 100578
10:00+19юз5846100 0.0 10051688
13:00+19зюз564570 0.0 10051789
16:00+18з575182 0.0 1006602
19:00+18з565782 0.0 1007907
22:00+13зюз226855 0.0 100714
3 июля, вс
вс301:00+12зюз2267100 0.0 100719
04:00+11зсз117220 0.0 100710
07:00+13ю0168100 0.0 1007167
10:00+17ююв3358100 0.1 1007940
13:00+21юв144291 0.6 10052192
16:00+20ссз445223 0.7 1005865
19:00+17ссз476458 0.9 1006329
22:00+15сз116969 0.6 100714
4 июля, пн
пн401:00+13сз227428 0.6 100812
04:00+13ссз117479 0.0 100812
07:00+14всв117490 0.0 1009174
10:00+16ю006722 0.0 1008551
13:00+20ююв224730 0.0 10071774
16:00+21всв224399 0.0 10061752
19:00+19св345943 0.0 1006366
22:00+16св126722 0.0 100616
5 июля, вт
вт501:00+14ссз22742 0.0 100611
04:00+13ссв22785 0.0 100512
07:00+16св127316 0.0 1004150
10:00+20вюв345874 0.0 1003677
13:00+23вюв45463 0.0 10011376
16:00+25в334212 0.0 10001638
19:00+23всв455294 0.0 998446
22:00+18вюв1165100 0.0 99811
6 июля, ср
ср601:00+17юз2260100 0.0 99813
04:00+15сз2268100 0.0 99919
07:00+15юз4885100 0.4 1002297
10:00+17ююз3675100 4.6 1002724
13:00+21з6950100 5.2 10021748
16:00+22зсз454597 0.1 10021658
19:00+21зсз2452100 0.1 1003751
22:00+15зюз13745 0.1 100558